Year,Month,Day,Hour,Minute,Value (Times are PST for temperature in C)
2010,07,08,00,00,17.10
2010,07,08,00,01,17.00
2010,07,08,00,02,17.00
2010,07,08,00,03,17.00
2010,07,08,00,04,17.10
2010,07,08,00,05,17.10
2010,07,08,00,06,17.10
2010,07,08,00,07,17.10
2010,07,08,00,08,17.10
2010,07,08,00,09,17.10
2010,07,08,00,10,17.00
2010,07,08,00,11,17.00
2010,07,08,00,12,17.00
2010,07,08,00,13,17.00
2010,07,08,00,14,17.00
2010,07,08,00,15,17.00
2010,07,08,00,16,17.00
2010,07,08,00,17,17.10
2010,07,08,00,18,17.00
2010,07,08,00,19,17.00
2010,07,08,00,20,17.00
2010,07,08,00,21,17.00
2010,07,08,00,22,17.00
2010,07,08,00,23,16.90
2010,07,08,00,24,16.90
2010,07,08,00,25,16.80
2010,07,08,00,26,16.80
2010,07,08,00,27,16.80
2010,07,08,00,28,16.70
2010,07,08,00,29,16.80
2010,07,08,00,30,16.80
2010,07,08,00,31,16.70
2010,07,08,00,32,16.70
2010,07,08,00,33,16.70
2010,07,08,00,34,16.70
2010,07,08,00,35,16.70
2010,07,08,00,36,16.60
2010,07,08,00,37,16.60
2010,07,08,00,38,16.50
2010,07,08,00,39,16.40
2010,07,08,00,40,16.40
2010,07,08,00,41,16.30
2010,07,08,00,42,16.30
2010,07,08,00,43,16.20
2010,07,08,00,44,16.20
2010,07,08,00,45,16.20
2010,07,08,00,46,16.20
2010,07,08,00,47,16.20
2010,07,08,00,48,16.20
2010,07,08,00,49,16.20
2010,07,08,00,50,16.10
2010,07,08,00,51,16.10
2010,07,08,00,52,16.10
2010,07,08,00,53,16.10
2010,07,08,00,54,16.10
2010,07,08,00,55,16.10
2010,07,08,00,56,16.10
2010,07,08,00,57,16.10
2010,07,08,00,58,16.10
2010,07,08,00,59,16.10
2010,07,08,01,00,16.10
2010,07,08,01,01,16.10
2010,07,08,01,02,16.10
2010,07,08,01,03,16.00
2010,07,08,01,04,16.00
2010,07,08,01,05,16.00
2010,07,08,01,06,15.90
2010,07,08,01,07,15.90
2010,07,08,01,08,15.90
2010,07,08,01,09,15.90
2010,07,08,01,10,15.90
2010,07,08,01,11,15.90
2010,07,08,01,12,15.90
2010,07,08,01,13,15.90
2010,07,08,01,14,16.00
2010,07,08,01,15,16.00
2010,07,08,01,16,16.10
2010,07,08,01,17,16.10
2010,07,08,01,18,16.10
2010,07,08,01,19,16.10
2010,07,08,01,20,16.10
2010,07,08,01,21,16.10
2010,07,08,01,22,16.10
2010,07,08,01,23,16.00
2010,07,08,01,24,16.00
2010,07,08,01,25,16.00
2010,07,08,01,26,15.90
2010,07,08,01,27,15.90
2010,07,08,01,28,15.90
2010,07,08,01,29,15.90
2010,07,08,01,30,15.80
2010,07,08,01,31,15.80
2010,07,08,01,32,15.70
2010,07,08,01,33,15.70
2010,07,08,01,34,15.70
2010,07,08,01,35,15.70
2010,07,08,01,36,15.70
2010,07,08,01,37,15.70
2010,07,08,01,38,15.70
2010,07,08,01,39,15.60
2010,07,08,01,40,15.60
2010,07,08,01,41,15.60
2010,07,08,01,42,15.60
2010,07,08,01,43,15.60
2010,07,08,01,44,15.70
2010,07,08,01,45,15.70
2010,07,08,01,46,15.70
2010,07,08,01,47,15.70
2010,07,08,01,48,15.70
2010,07,08,01,49,15.80
2010,07,08,01,50,15.70
2010,07,08,01,51,15.70
2010,07,08,01,52,15.70
2010,07,08,01,53,15.80
2010,07,08,01,54,15.80
2010,07,08,01,55,15.80
2010,07,08,01,56,15.80
2010,07,08,01,57,15.80
2010,07,08,01,58,15.80
2010,07,08,01,59,15.80
2010,07,08,02,00,15.80
2010,07,08,02,01,15.80
2010,07,08,02,02,15.80
2010,07,08,02,03,15.70
2010,07,08,02,04,15.70
2010,07,08,02,05,15.70
2010,07,08,02,06,15.70
2010,07,08,02,07,15.70
2010,07,08,02,08,15.70
2010,07,08,02,09,15.70
2010,07,08,02,10,15.70
2010,07,08,02,11,15.70
2010,07,08,02,12,15.70
2010,07,08,02,13,15.70
2010,07,08,02,14,15.70
2010,07,08,02,15,15.60
2010,07,08,02,16,15.60
2010,07,08,02,17,15.60
2010,07,08,02,18,15.60
2010,07,08,02,19,15.60
2010,07,08,02,20,15.60
2010,07,08,02,21,15.70
2010,07,08,02,22,15.70
2010,07,08,02,23,15.70
2010,07,08,02,24,15.70
2010,07,08,02,25,15.70
2010,07,08,02,26,15.80
2010,07,08,02,27,15.80
2010,07,08,02,28,15.80
2010,07,08,02,29,15.80
2010,07,08,02,30,15.80
2010,07,08,02,31,15.80
2010,07,08,02,32,15.80
2010,07,08,02,33,15.80
2010,07,08,02,34,15.80
2010,07,08,02,35,15.80
2010,07,08,02,36,15.80
2010,07,08,02,37,15.70
2010,07,08,02,38,15.70
2010,07,08,02,39,15.70
2010,07,08,02,40,15.60
2010,07,08,02,41,15.60
2010,07,08,02,42,15.60
2010,07,08,02,43,15.60
2010,07,08,02,44,15.50
2010,07,08,02,45,15.50
2010,07,08,02,46,15.50
2010,07,08,02,47,15.40
2010,07,08,02,48,15.40
2010,07,08,02,49,15.40
2010,07,08,02,50,15.30
2010,07,08,02,51,15.30
2010,07,08,02,52,15.20
2010,07,08,02,53,15.20
2010,07,08,02,54,15.20
2010,07,08,02,55,15.20
2010,07,08,02,56,15.10
2010,07,08,02,57,15.10
2010,07,08,02,58,15.00
2010,07,08,02,59,15.00
2010,07,08,03,00,15.00
2010,07,08,03,01,15.00
2010,07,08,03,02,15.00
2010,07,08,03,03,15.00
2010,07,08,03,04,15.00
2010,07,08,03,05,15.00
2010,07,08,03,06,15.00
2010,07,08,03,07,15.00
2010,07,08,03,08,15.00
2010,07,08,03,09,15.00
2010,07,08,03,10,15.00
2010,07,08,03,11,14.90
2010,07,08,03,12,14.90
2010,07,08,03,13,14.80
2010,07,08,03,14,14.90
2010,07,08,03,15,14.80
2010,07,08,03,16,14.80
2010,07,08,03,17,14.80
2010,07,08,03,18,14.80
2010,07,08,03,19,14.80
2010,07,08,03,20,14.80
2010,07,08,03,21,14.80
2010,07,08,03,22,14.80
2010,07,08,03,23,14.80
2010,07,08,03,24,14.70
2010,07,08,03,25,14.70
2010,07,08,03,26,14.70
2010,07,08,03,27,14.70
2010,07,08,03,28,14.70
2010,07,08,03,29,14.70
2010,07,08,03,30,14.60
2010,07,08,03,31,14.60
2010,07,08,03,32,14.60
2010,07,08,03,33,14.60
2010,07,08,03,34,14.60
2010,07,08,03,35,14.60
2010,07,08,03,36,14.60
2010,07,08,03,37,14.60
2010,07,08,03,38,14.60
2010,07,08,03,39,14.60
2010,07,08,03,40,14.60
2010,07,08,03,41,14.60
2010,07,08,03,42,14.60
2010,07,08,03,43,14.60
2010,07,08,03,44,14.70
2010,07,08,03,45,14.70
2010,07,08,03,46,14.70
2010,07,08,03,47,14.70
2010,07,08,03,48,14.70
2010,07,08,03,49,14.70
2010,07,08,03,50,14.70
2010,07,08,03,51,14.70
2010,07,08,03,52,14.70
2010,07,08,03,53,14.60
2010,07,08,03,54,14.60
2010,07,08,03,55,14.50
2010,07,08,03,56,14.50
2010,07,08,03,57,14.50
2010,07,08,03,58,14.50
2010,07,08,03,59,14.50
2010,07,08,04,00,14.50
2010,07,08,04,01,14.50
2010,07,08,04,02,14.50
2010,07,08,04,03,14.50
2010,07,08,04,04,14.60
2010,07,08,04,05,14.60
2010,07,08,04,06,14.60
2010,07,08,04,07,14.60
2010,07,08,04,08,14.60
2010,07,08,04,09,14.60
2010,07,08,04,10,14.60
2010,07,08,04,11,14.60
2010,07,08,04,12,14.60
2010,07,08,04,13,14.60
2010,07,08,04,14,14.60
2010,07,08,04,15,14.70
2010,07,08,04,16,14.70
2010,07,08,04,17,14.70
2010,07,08,04,18,14.70
2010,07,08,04,19,14.70
2010,07,08,04,20,14.70
2010,07,08,04,21,14.70
2010,07,08,04,22,14.60
2010,07,08,04,23,14.60
2010,07,08,04,24,14.60
2010,07,08,04,25,14.60
2010,07,08,04,26,14.50
2010,07,08,04,27,14.50
2010,07,08,04,28,14.40
2010,07,08,04,29,14.40
2010,07,08,04,30,14.40
2010,07,08,04,31,14.40
2010,07,08,04,32,14.40
2010,07,08,04,33,14.40
2010,07,08,04,34,14.40
2010,07,08,04,35,14.40
2010,07,08,04,36,14.40
2010,07,08,04,37,14.40
2010,07,08,04,38,14.30
2010,07,08,04,39,14.30
2010,07,08,04,40,14.30
2010,07,08,04,41,14.30
2010,07,08,04,42,14.30
2010,07,08,04,43,14.30
2010,07,08,04,44,14.30
2010,07,08,04,45,14.30
2010,07,08,04,46,14.20
2010,07,08,04,47,14.20
2010,07,08,04,48,14.20
2010,07,08,04,49,14.20
2010,07,08,04,50,14.20
2010,07,08,04,51,14.10
2010,07,08,04,52,14.10
2010,07,08,04,53,14.10
2010,07,08,04,54,14.10
2010,07,08,04,55,14.10
2010,07,08,04,56,14.00
2010,07,08,04,57,14.00
2010,07,08,04,58,14.00
2010,07,08,04,59,14.10
2010,07,08,05,00,14.00
2010,07,08,05,01,14.00
2010,07,08,05,02,14.00
2010,07,08,05,03,14.00
2010,07,08,05,04,14.00
2010,07,08,05,05,14.00
2010,07,08,05,06,13.90
2010,07,08,05,07,13.90
2010,07,08,05,08,13.90
2010,07,08,05,09,13.90
2010,07,08,05,10,13.90
2010,07,08,05,11,13.90
2010,07,08,05,12,14.00
2010,07,08,05,13,14.00
2010,07,08,05,14,14.10
2010,07,08,05,15,14.10
2010,07,08,05,16,14.10
2010,07,08,05,17,14.10
2010,07,08,05,18,14.10
2010,07,08,05,19,14.10
2010,07,08,05,20,14.10
2010,07,08,05,21,14.00
2010,07,08,05,22,14.00
2010,07,08,05,23,14.00
2010,07,08,05,24,14.00
2010,07,08,05,25,14.00
2010,07,08,05,26,14.00
2010,07,08,05,27,14.00
2010,07,08,05,28,14.10
2010,07,08,05,29,14.10
2010,07,08,05,30,14.10
2010,07,08,05,31,14.10
2010,07,08,05,32,14.20
2010,07,08,05,33,14.20
2010,07,08,05,34,14.20
2010,07,08,05,35,14.20
2010,07,08,05,36,14.20
2010,07,08,05,37,14.20
2010,07,08,05,38,14.20
2010,07,08,05,39,14.20
2010,07,08,05,40,14.20
2010,07,08,05,41,14.20
2010,07,08,05,42,14.20
2010,07,08,05,43,14.20
2010,07,08,05,44,14.20
2010,07,08,05,45,14.20
2010,07,08,05,46,14.20
2010,07,08,05,47,14.20
2010,07,08,05,48,14.20
2010,07,08,05,49,14.20
2010,07,08,05,50,14.20
2010,07,08,05,51,14.20
2010,07,08,05,52,14.20
2010,07,08,05,53,14.30
2010,07,08,05,54,14.20
2010,07,08,05,55,14.30
2010,07,08,05,56,14.30
2010,07,08,05,57,14.30
2010,07,08,05,58,14.30
2010,07,08,05,59,14.30
2010,07,08,06,00,14.30
2010,07,08,06,01,14.30
2010,07,08,06,02,14.30
2010,07,08,06,03,14.30
2010,07,08,06,04,14.30
2010,07,08,06,05,14.30
2010,07,08,06,06,14.30
2010,07,08,06,07,14.40
2010,07,08,06,08,14.30
2010,07,08,06,09,14.30
2010,07,08,06,10,14.30
2010,07,08,06,11,14.40
2010,07,08,06,12,14.40
2010,07,08,06,13,14.50
2010,07,08,06,14,14.50
2010,07,08,06,15,14.60
2010,07,08,06,16,14.60
2010,07,08,06,17,14.70
2010,07,08,06,18,14.70
2010,07,08,06,19,14.70
2010,07,08,06,20,14.70
2010,07,08,06,21,14.60
2010,07,08,06,22,14.60
2010,07,08,06,23,14.60
2010,07,08,06,24,14.60
2010,07,08,06,25,14.70
2010,07,08,06,26,14.70
2010,07,08,06,27,14.70
2010,07,08,06,28,14.70
2010,07,08,06,29,14.70
2010,07,08,06,30,14.80
2010,07,08,06,31,14.90
2010,07,08,06,32,15.00
2010,07,08,06,33,15.00
2010,07,08,06,34,15.00
2010,07,08,06,35,15.00
2010,07,08,06,36,15.00
2010,07,08,06,37,15.00
2010,07,08,06,38,15.00
2010,07,08,06,39,15.00
2010,07,08,06,40,15.00
2010,07,08,06,41,15.00
2010,07,08,06,42,15.00
2010,07,08,06,43,15.00
2010,07,08,06,44,15.00
2010,07,08,06,45,15.00
2010,07,08,06,46,15.00
2010,07,08,06,47,15.00
2010,07,08,06,48,15.00
2010,07,08,06,49,15.00
2010,07,08,06,50,15.00
2010,07,08,06,51,15.00
2010,07,08,06,52,15.00
2010,07,08,06,53,15.00
2010,07,08,06,54,15.00
2010,07,08,06,55,15.00
2010,07,08,06,56,15.00
2010,07,08,06,57,15.00
2010,07,08,06,58,15.00
2010,07,08,06,59,15.00
2010,07,08,07,00,15.00
2010,07,08,07,01,15.10
2010,07,08,07,02,15.20
2010,07,08,07,03,15.30
2010,07,08,07,04,15.30
2010,07,08,07,05,15.40
2010,07,08,07,06,15.40
2010,07,08,07,07,15.40
2010,07,08,07,08,15.50
2010,07,08,07,09,15.60
2010,07,08,07,10,15.60
2010,07,08,07,11,15.70
2010,07,08,07,12,15.70
2010,07,08,07,13,15.70
2010,07,08,07,14,15.80
2010,07,08,07,15,15.80
2010,07,08,07,16,15.80
2010,07,08,07,17,15.80
2010,07,08,07,18,15.90
2010,07,08,07,19,15.90
2010,07,08,07,20,15.90
2010,07,08,07,21,16.00
2010,07,08,07,22,16.10
2010,07,08,07,23,16.10
2010,07,08,07,24,16.20
2010,07,08,07,25,16.20
2010,07,08,07,26,16.30
2010,07,08,07,27,16.30
2010,07,08,07,28,16.40
2010,07,08,07,29,16.40
2010,07,08,07,30,16.50
2010,07,08,07,31,16.50
2010,07,08,07,32,16.60
2010,07,08,07,33,16.60
2010,07,08,07,34,16.70
2010,07,08,07,35,16.80
2010,07,08,07,36,16.80
2010,07,08,07,37,16.90
2010,07,08,07,38,17.00
2010,07,08,07,39,17.10
2010,07,08,07,40,17.10
2010,07,08,07,41,17.20
2010,07,08,07,42,17.20
2010,07,08,07,43,17.30
2010,07,08,07,44,17.30
2010,07,08,07,45,17.40
2010,07,08,07,46,17.40
2010,07,08,07,47,17.50
2010,07,08,07,48,17.60
2010,07,08,07,49,17.60
2010,07,08,07,50,17.70
2010,07,08,07,51,17.80
2010,07,08,07,52,18.00
2010,07,08,07,53,18.10
2010,07,08,07,54,18.20
2010,07,08,07,55,18.20
2010,07,08,07,56,18.30
2010,07,08,07,57,18.40
2010,07,08,07,58,18.50
2010,07,08,07,59,18.60
2010,07,08,08,00,18.60
2010,07,08,08,01,18.70
2010,07,08,08,02,18.80
2010,07,08,08,03,18.80
2010,07,08,08,04,19.00
2010,07,08,08,05,19.30
2010,07,08,08,06,19.60
2010,07,08,08,07,19.90
2010,07,08,08,08,20.00
2010,07,08,08,09,20.10
2010,07,08,08,10,20.30
2010,07,08,08,11,20.40
2010,07,08,08,12,20.50
2010,07,08,08,13,20.60
2010,07,08,08,14,20.70
2010,07,08,08,15,20.80
2010,07,08,08,16,20.80
2010,07,08,08,17,20.90
2010,07,08,08,18,20.90
2010,07,08,08,19,21.00
2010,07,08,08,20,21.10
2010,07,08,08,21,21.20
2010,07,08,08,22,21.30
2010,07,08,08,23,21.40
2010,07,08,08,24,21.40
2010,07,08,08,25,21.50
2010,07,08,08,26,21.60
2010,07,08,08,27,21.60
2010,07,08,08,28,21.60
2010,07,08,08,29,21.70
2010,07,08,08,30,21.70
2010,07,08,08,31,21.70
2010,07,08,08,32,21.80
2010,07,08,08,33,21.80
2010,07,08,08,34,21.80
2010,07,08,08,35,21.90
2010,07,08,08,36,21.90
2010,07,08,08,37,22.00
2010,07,08,08,38,22.00
2010,07,08,08,39,22.10
2010,07,08,08,40,22.10
2010,07,08,08,41,22.10
2010,07,08,08,42,22.20
2010,07,08,08,43,22.20
2010,07,08,08,44,22.30
2010,07,08,08,45,22.30
2010,07,08,08,46,22.40
2010,07,08,08,47,22.40
2010,07,08,08,48,22.40
2010,07,08,08,49,22.50
2010,07,08,08,50,22.50
2010,07,08,08,51,22.50
2010,07,08,08,52,22.60
2010,07,08,08,53,22.60
2010,07,08,08,54,22.60
2010,07,08,08,55,22.70
2010,07,08,08,56,22.70
2010,07,08,08,57,22.70
2010,07,08,08,58,22.70
2010,07,08,08,59,22.70
2010,07,08,09,00,22.70
2010,07,08,09,01,22.70
2010,07,08,09,02,22.70
2010,07,08,09,03,22.80
2010,07,08,09,04,22.90
2010,07,08,09,05,22.90
2010,07,08,09,06,23.00
2010,07,08,09,07,23.00
2010,07,08,09,08,23.00
2010,07,08,09,09,23.00
2010,07,08,09,10,23.00
2010,07,08,09,11,23.10
2010,07,08,09,12,23.10
2010,07,08,09,13,23.10
2010,07,08,09,14,23.10
2010,07,08,09,15,23.20
2010,07,08,09,16,23.20
2010,07,08,09,17,23.20
2010,07,08,09,18,23.30
2010,07,08,09,19,23.30
2010,07,08,09,20,23.30
2010,07,08,09,21,23.40
2010,07,08,09,22,23.40
2010,07,08,09,23,23.30
2010,07,08,09,24,23.40
2010,07,08,09,25,23.40
2010,07,08,09,26,23.50
2010,07,08,09,27,23.50
2010,07,08,09,28,23.60
2010,07,08,09,29,23.60
2010,07,08,09,30,23.70
2010,07,08,09,31,23.70
2010,07,08,09,32,23.70
2010,07,08,09,33,23.80
2010,07,08,09,34,23.80
2010,07,08,09,35,23.90
2010,07,08,09,36,23.90
2010,07,08,09,37,23.90
2010,07,08,09,38,23.80
2010,07,08,09,39,23.60
2010,07,08,09,40,23.50
2010,07,08,09,41,23.40
2010,07,08,09,42,23.40
2010,07,08,09,43,23.40
2010,07,08,09,44,23.40
2010,07,08,09,45,23.40
2010,07,08,09,46,23.50
2010,07,08,09,47,23.50
2010,07,08,09,48,23.60
2010,07,08,09,49,23.60
2010,07,08,09,50,23.70
2010,07,08,09,51,23.70
2010,07,08,09,52,23.70
2010,07,08,09,53,23.70
2010,07,08,09,54,23.80
2010,07,08,09,55,23.80
2010,07,08,09,56,23.90
2010,07,08,09,57,23.80
2010,07,08,09,58,23.80
2010,07,08,09,59,23.80
2010,07,08,10,00,23.80
2010,07,08,10,01,23.80
2010,07,08,10,02,23.90
2010,07,08,10,03,23.90
2010,07,08,10,04,23.90
2010,07,08,10,05,23.90
2010,07,08,10,06,24.00
2010,07,08,10,07,24.00
2010,07,08,10,08,24.10
2010,07,08,10,09,24.10
2010,07,08,10,10,24.10
2010,07,08,10,11,24.10
2010,07,08,10,12,24.00
2010,07,08,10,13,24.00
2010,07,08,10,14,24.00
2010,07,08,10,15,24.00
2010,07,08,10,16,24.00
2010,07,08,10,17,24.00
2010,07,08,10,18,24.00
2010,07,08,10,19,24.10
2010,07,08,10,20,24.20
2010,07,08,10,21,24.20
2010,07,08,10,22,24.30
2010,07,08,10,23,24.30
2010,07,08,10,24,24.30
2010,07,08,10,25,24.40
2010,07,08,10,26,24.50
2010,07,08,10,27,24.50
2010,07,08,10,28,24.60
2010,07,08,10,29,24.60
2010,07,08,10,30,24.70
2010,07,08,10,31,24.60
2010,07,08,10,32,24.70
2010,07,08,10,33,24.70
2010,07,08,10,34,24.70
2010,07,08,10,35,24.80
2010,07,08,10,36,24.80
2010,07,08,10,37,24.80
2010,07,08,10,38,24.80
2010,07,08,10,39,24.80
2010,07,08,10,40,24.90
2010,07,08,10,41,24.90
2010,07,08,10,42,25.00
2010,07,08,10,43,25.10
2010,07,08,10,44,25.10
2010,07,08,10,45,25.10
2010,07,08,10,46,25.10
2010,07,08,10,47,25.10
2010,07,08,10,48,25.10
2010,07,08,10,49,25.10
2010,07,08,10,50,25.20
2010,07,08,10,51,25.20
2010,07,08,10,52,25.10
2010,07,08,10,53,25.10
2010,07,08,10,54,25.10
2010,07,08,10,55,25.20
2010,07,08,10,56,25.30
2010,07,08,10,57,25.30
2010,07,08,10,58,25.40
2010,07,08,10,59,25.40
2010,07,08,11,00,25.40
2010,07,08,11,01,25.40
2010,07,08,11,02,25.40
2010,07,08,11,03,25.40
2010,07,08,11,04,25.40
2010,07,08,11,05,25.40
2010,07,08,11,06,25.50
2010,07,08,11,07,25.50
2010,07,08,11,08,25.60
2010,07,08,11,09,25.60
2010,07,08,11,10,25.60
2010,07,08,11,11,25.60
2010,07,08,11,12,25.60
2010,07,08,11,13,25.50
2010,07,08,11,14,25.50
2010,07,08,11,15,25.60
2010,07,08,11,16,25.60
2010,07,08,11,17,25.70
2010,07,08,11,18,25.80
2010,07,08,11,19,25.70
2010,07,08,11,20,25.70
2010,07,08,11,21,25.70
2010,07,08,11,22,25.60
2010,07,08,11,23,25.50
2010,07,08,11,24,25.40
2010,07,08,11,25,25.30
2010,07,08,11,26,25.20
2010,07,08,11,27,25.20
2010,07,08,11,28,25.20
2010,07,08,11,29,25.10
2010,07,08,11,30,25.20
2010,07,08,11,31,25.20
2010,07,08,11,32,25.30
2010,07,08,11,33,25.40
2010,07,08,11,34,25.50
2010,07,08,11,35,25.60
2010,07,08,11,36,25.70
2010,07,08,11,37,25.70
2010,07,08,11,38,25.70
2010,07,08,11,39,25.60
2010,07,08,11,40,25.60
2010,07,08,11,41,25.60
2010,07,08,11,42,25.60
2010,07,08,11,43,25.70
2010,07,08,11,44,25.70
2010,07,08,11,45,25.80
2010,07,08,11,46,25.90
2010,07,08,11,47,25.90
2010,07,08,11,48,26.00
2010,07,08,11,49,26.10
2010,07,08,11,50,26.20
2010,07,08,11,51,26.20
2010,07,08,11,52,26.30
2010,07,08,11,53,26.30
2010,07,08,11,54,26.30
2010,07,08,11,55,26.30
2010,07,08,11,56,26.30
2010,07,08,11,57,26.30
2010,07,08,11,58,26.30
2010,07,08,11,59,26.30
2010,07,08,12,00,26.10
2010,07,08,12,01,25.90
2010,07,08,12,02,25.90
2010,07,08,12,03,25.80
2010,07,08,12,04,25.70
2010,07,08,12,05,25.60
2010,07,08,12,06,25.60
2010,07,08,12,07,25.50
2010,07,08,12,08,25.40
2010,07,08,12,09,25.40
2010,07,08,12,10,25.30
2010,07,08,12,11,25.20
2010,07,08,12,12,25.20
2010,07,08,12,13,25.20
2010,07,08,12,14,25.20
2010,07,08,12,15,25.30
2010,07,08,12,16,25.40
2010,07,08,12,17,25.50
2010,07,08,12,18,25.60
2010,07,08,12,19,25.60
2010,07,08,12,20,25.70
2010,07,08,12,21,25.70
2010,07,08,12,22,25.80
2010,07,08,12,23,25.90
2010,07,08,12,24,26.00
2010,07,08,12,25,26.00
2010,07,08,12,26,26.10
2010,07,08,12,27,26.10
2010,07,08,12,28,26.00
2010,07,08,12,29,26.10
2010,07,08,12,30,26.00
2010,07,08,12,31,26.00
2010,07,08,12,32,26.00
2010,07,08,12,33,26.00
2010,07,08,12,34,26.00
2010,07,08,12,35,26.10
2010,07,08,12,36,26.20
2010,07,08,12,37,26.20
2010,07,08,12,38,26.30
2010,07,08,12,39,26.30
2010,07,08,12,40,26.30
2010,07,08,12,41,26.30
2010,07,08,12,42,26.40
2010,07,08,12,43,26.50
2010,07,08,12,44,26.60
2010,07,08,12,45,26.70
2010,07,08,12,46,26.70
2010,07,08,12,47,26.70
2010,07,08,12,48,26.80
2010,07,08,12,49,26.80
2010,07,08,12,50,26.80
2010,07,08,12,51,26.80
2010,07,08,12,52,26.80
2010,07,08,12,53,26.80
2010,07,08,12,54,26.80
2010,07,08,12,55,26.90
2010,07,08,12,56,26.90
2010,07,08,12,57,27.00
2010,07,08,12,58,27.10
2010,07,08,12,59,27.10
2010,07,08,13,00,27.20
2010,07,08,13,01,27.10
2010,07,08,13,02,27.10
2010,07,08,13,03,27.00
2010,07,08,13,04,26.90
2010,07,08,13,05,26.90
2010,07,08,13,06,26.80
2010,07,08,13,07,26.80
2010,07,08,13,08,26.80
2010,07,08,13,09,26.80
2010,07,08,13,10,26.80
2010,07,08,13,11,26.80
2010,07,08,13,12,26.90
2010,07,08,13,13,26.90
2010,07,08,13,14,26.90
2010,07,08,13,15,26.90
2010,07,08,13,16,26.90
2010,07,08,13,17,27.00
2010,07,08,13,18,27.10
2010,07,08,13,19,27.30
2010,07,08,13,20,27.40
2010,07,08,13,21,27.40
2010,07,08,13,22,27.50
2010,07,08,13,23,27.70
2010,07,08,13,24,27.80
2010,07,08,13,25,27.80
2010,07,08,13,26,27.90
2010,07,08,13,27,27.80
2010,07,08,13,28,27.80
2010,07,08,13,29,27.80
2010,07,08,13,30,27.70
2010,07,08,13,31,27.70
2010,07,08,13,32,27.70
2010,07,08,13,33,27.70
2010,07,08,13,34,27.70
2010,07,08,13,35,27.70
2010,07,08,13,36,27.70
2010,07,08,13,37,27.70
2010,07,08,13,38,27.70
2010,07,08,13,39,27.80
2010,07,08,13,40,27.80
2010,07,08,13,41,27.80
2010,07,08,13,42,27.80
2010,07,08,13,43,27.80
2010,07,08,13,44,27.90
2010,07,08,13,45,27.90
2010,07,08,13,46,28.00
2010,07,08,13,47,28.00
2010,07,08,13,48,28.10
2010,07,08,13,49,28.20
2010,07,08,13,50,28.10
2010,07,08,13,51,28.10
2010,07,08,13,52,28.20
2010,07,08,13,53,28.20
2010,07,08,13,54,28.20
2010,07,08,13,55,28.10
2010,07,08,13,56,28.10
2010,07,08,13,57,28.10
2010,07,08,13,58,28.10
2010,07,08,13,59,28.20
2010,07,08,14,00,28.20
2010,07,08,14,01,28.30
2010,07,08,14,02,28.30
2010,07,08,14,03,28.30
2010,07,08,14,04,28.30
2010,07,08,14,05,28.30
2010,07,08,14,06,28.40
2010,07,08,14,07,28.40
2010,07,08,14,08,28.50
2010,07,08,14,09,28.60
2010,07,08,14,10,28.60
2010,07,08,14,11,28.70
2010,07,08,14,12,28.80
2010,07,08,14,13,28.80
2010,07,08,14,14,28.80
2010,07,08,14,15,28.80
2010,07,08,14,16,28.70
2010,07,08,14,17,28.70
2010,07,08,14,18,28.70
2010,07,08,14,19,28.80
2010,07,08,14,20,28.80
2010,07,08,14,21,28.70
2010,07,08,14,22,28.50
2010,07,08,14,23,28.30
2010,07,08,14,24,28.20
2010,07,08,14,25,28.10
2010,07,08,14,26,28.00
2010,07,08,14,27,28.00
2010,07,08,14,28,28.00
2010,07,08,14,29,28.10
2010,07,08,14,30,28.20
2010,07,08,14,31,28.20
2010,07,08,14,32,28.30
2010,07,08,14,33,28.30
2010,07,08,14,34,28.30
2010,07,08,14,35,28.20
2010,07,08,14,36,28.20
2010,07,08,14,37,28.20
2010,07,08,14,38,28.20
2010,07,08,14,39,28.20
2010,07,08,14,40,28.20
2010,07,08,14,41,28.30
2010,07,08,14,42,28.30
2010,07,08,14,43,28.40
2010,07,08,14,44,28.40
2010,07,08,14,45,28.40
2010,07,08,14,46,28.50
2010,07,08,14,47,28.50
2010,07,08,14,48,28.40
2010,07,08,14,49,28.50
2010,07,08,14,50,28.60
2010,07,08,14,51,28.50
2010,07,08,14,52,28.50
2010,07,08,14,53,28.60
2010,07,08,14,54,28.60
2010,07,08,14,55,28.70
2010,07,08,14,56,28.70
2010,07,08,14,57,28.70
2010,07,08,14,58,28.80
2010,07,08,14,59,28.80
2010,07,08,15,00,28.80
2010,07,08,15,01,28.80
2010,07,08,15,02,28.80
2010,07,08,15,03,28.90
2010,07,08,15,04,28.80
2010,07,08,15,05,28.80
2010,07,08,15,06,28.80
2010,07,08,15,07,28.80
2010,07,08,15,08,28.70
2010,07,08,15,09,28.70
2010,07,08,15,10,28.70
2010,07,08,15,11,28.70
2010,07,08,15,12,28.70
2010,07,08,15,13,28.70
2010,07,08,15,14,28.70
2010,07,08,15,15,28.70
2010,07,08,15,16,28.80
2010,07,08,15,17,28.80
2010,07,08,15,18,28.90
2010,07,08,15,19,29.00
2010,07,08,15,20,29.10
2010,07,08,15,21,29.20
2010,07,08,15,22,29.30
2010,07,08,15,23,29.40
2010,07,08,15,24,29.40
2010,07,08,15,25,29.50
2010,07,08,15,26,29.50
2010,07,08,15,27,29.60
2010,07,08,15,28,29.60
2010,07,08,15,29,29.60
2010,07,08,15,30,29.60
2010,07,08,15,31,29.70
2010,07,08,15,32,29.70
2010,07,08,15,33,29.80
2010,07,08,15,34,29.80
2010,07,08,15,35,29.80
2010,07,08,15,36,29.80
2010,07,08,15,37,29.80
2010,07,08,15,38,29.70
2010,07,08,15,39,29.70
2010,07,08,15,40,29.60
2010,07,08,15,41,29.50
2010,07,08,15,42,29.40
2010,07,08,15,43,29.40
2010,07,08,15,44,29.50
2010,07,08,15,45,29.60
2010,07,08,15,46,29.70
2010,07,08,15,47,29.70
2010,07,08,15,48,29.70
2010,07,08,15,49,29.70
2010,07,08,15,50,29.70
2010,07,08,15,51,29.60
2010,07,08,15,52,29.60
2010,07,08,15,53,29.50
2010,07,08,15,54,29.40
2010,07,08,15,55,29.30
2010,07,08,15,56,29.30
2010,07,08,15,57,29.20
2010,07,08,15,58,29.20
2010,07,08,15,59,29.10
2010,07,08,16,00,29.10
2010,07,08,16,01,29.10
2010,07,08,16,02,29.10
2010,07,08,16,03,29.10
2010,07,08,16,04,29.20
2010,07,08,16,05,29.20
2010,07,08,16,06,29.20
2010,07,08,16,07,29.20
2010,07,08,16,08,29.20
2010,07,08,16,09,29.20
2010,07,08,16,10,29.20
2010,07,08,16,11,29.20
2010,07,08,16,12,29.10
2010,07,08,16,13,29.10
2010,07,08,16,14,29.10
2010,07,08,16,15,29.10
2010,07,08,16,16,29.10
2010,07,08,16,17,29.10
2010,07,08,16,18,29.10
2010,07,08,16,19,29.10
2010,07,08,16,20,29.10
2010,07,08,16,21,29.10
2010,07,08,16,22,29.10
2010,07,08,16,23,29.20
2010,07,08,16,24,29.20
2010,07,08,16,25,29.30
2010,07,08,16,26,29.30
2010,07,08,16,27,29.40
2010,07,08,16,28,29.40
2010,07,08,16,29,29.50
2010,07,08,16,30,29.50
2010,07,08,16,31,29.40
2010,07,08,16,32,29.40
2010,07,08,16,33,29.40
2010,07,08,16,34,29.40
2010,07,08,16,35,29.40
2010,07,08,16,36,29.30
2010,07,08,16,37,29.30
2010,07,08,16,38,29.40
2010,07,08,16,39,29.40
2010,07,08,16,40,29.40
2010,07,08,16,41,29.40
2010,07,08,16,42,29.50
2010,07,08,16,43,29.50
2010,07,08,16,44,29.50
2010,07,08,16,45,29.50
2010,07,08,16,46,29.60
2010,07,08,16,47,29.60
2010,07,08,16,48,29.60
2010,07,08,16,49,29.70
2010,07,08,16,50,29.70
2010,07,08,16,51,29.80
2010,07,08,16,52,29.80
2010,07,08,16,53,29.90
2010,07,08,16,54,29.90
2010,07,08,16,55,29.80
2010,07,08,16,56,29.80
2010,07,08,16,57,29.80
2010,07,08,16,58,29.80
2010,07,08,16,59,29.80
2010,07,08,17,00,29.80
2010,07,08,17,01,29.80
2010,07,08,17,02,29.90
2010,07,08,17,03,29.90
2010,07,08,17,04,29.90
2010,07,08,17,05,29.90
2010,07,08,17,06,29.90
2010,07,08,17,07,29.90
2010,07,08,17,08,30.00
2010,07,08,17,09,30.00
2010,07,08,17,10,30.10
2010,07,08,17,11,30.10
2010,07,08,17,12,30.10
2010,07,08,17,13,30.10
2010,07,08,17,14,30.00
2010,07,08,17,15,30.00
2010,07,08,17,16,29.90
2010,07,08,17,17,29.80
2010,07,08,17,18,29.80
2010,07,08,17,19,29.80